Regional Weather Roundup
Issued by NWS

Home | Current Version | Previous Version | Graphics & Text | Print | Product List | Glossary On
Versions: 1 2 3 4 5 6 7 8 9 10 11 12 13 14 15 16 17 18 19 20 21 22 23 24 25 26 27 28 29 30 31 32 33 34 35 36 37 38 39 40 41 42 43 44 45 46 47
000
ASUS45 KCYS 251810
RWRWY

WYOMING REGIONAL WEATHER ROUNDUP
NATIONAL WEATHER SERVICE CHEYENNE WY
1100 AM MST SUN JAN 25 2015

NOTE:  "FAIR" INDICATES FEW OR NO CLOUDS BELOW 12,000 FEET
WITH NO SIGNIFICANT WEATHER AND/OR OBSTRUCTIONS TO VISIBILITY.

WYZ001-251900-
YELLOWSTONE NATIONAL PARK

CITY           SKY/WX    TMP DP  RH WIND       PRES   REMARKS
LK YELLOWSTONE   N/A     28  25  88 VRB5      30.40R WCI  23
6HR MIN TEMP:  22; 6HR MAX TEMP:  29;

W YELLOWSTONE  NOT AVBL

$$
WYZ002>013-054>058-071-098>099-251900-
NORTHERN WYOMING

CITY           SKY/WX    TMP DP  RH WIND       PRES   REMARKS
JACKSON        CLOUDY    28  27  93 CALM      30.40R
CODY           FAIR      54  27  35 W13G28    30.09S
GREYBULL       FAIR      26  22  84 CALM      30.15F
6HR MIN TEMP:  15; 6HR MAX TEMP:  26;

WORLAND        FAIR      23  19  85 SW5       30.15R WCI  17
6HR MIN TEMP:  14; 6HR MAX TEMP:  23;

SHERIDAN       FAIR      41  33  73 S7        30.03F
6HR MIN TEMP:  33; 6HR MAX TEMP:  42;

BUFFALO        FAIR      45  33  63 S7        30.06R
6HR MIN TEMP:  33; 6HR MAX TEMP:  46;

GILLETTE       PTSUNNY   43  33  68 SW14      30.06S
6HR MIN TEMP:  31; 6HR MAX TEMP:  43; 6HR PCP: TRACE;

HULETT           N/A    N/A N/A N/A MISG        N/A
NEWCASTLE      FAIR      36  28  75 CALM      30.11R

$$
WYZ014>020-022>026-101>103-251900-
CENTRAL WYOMING

CITY           SKY/WX    TMP DP  RH WIND       PRES   REMARKS
BIG PINEY      FAIR      30  24  78 E5        30.36R WCI  25
6HR MIN TEMP:  18; 6HR MAX TEMP:  30;

PINEDALE       FAIR      34  30  86 W18       30.35R WCI  23
DUBOIS         FAIR      41  27  56 NW22      30.27R
LANDER         FAIR      40  26  57 E3        30.15R
6HR MIN TEMP:  29; 6HR MAX TEMP:  40;

RIVERTON       FAIR      34  24  67 CALM      30.18R
6HR MIN TEMP:  23; 6HR MAX TEMP:  34;

CASPER         FAIR      43  26  51 SW17G26   30.15S
6HR MIN TEMP:  34; 6HR MAX TEMP:  44;

DOUGLAS        CLOUDY    42  30  62 CALM      30.13F
6HR MIN TEMP:  30; 6HR MAX TEMP:  42;


$$
WYZ021-027>030-104>119-251900-
SOUTHERN WYOMING

CITY           SKY/WX    TMP DP  RH WIND       PRES   REMARKS
EVANSTON       FAIR      37  30  75 SW12      30.44S WCI  29
6HR MIN TEMP:  27; 6HR MAX TEMP:  37;

KEMMERER       CLOUDY    34  32  93 W9        30.43R WCI  26
FORT BRIDGER   FAIR      41  33  73 W18G28    30.42F
ROCK SPRINGS   FAIR      39  29  67 W23G30    30.34R WCI  28
6HR MIN TEMP:  30; 6HR MAX TEMP:  39;

DIXON          CLOUDY    38  28  66 SW8       30.40S WCI  32
RAWLINS        FAIR      37  28  70 W23G35    30.28R WCI  26
6HR MIN TEMP:  30; 6HR MAX TEMP:  38;

SARATOGA       FAIR      41  28  60 W16G26    30.30F
LARAMIE        PTSUNNY   42  26  53 W18G25    30.21R
6HR MIN TEMP:  26; 6HR MAX TEMP:  42;

CHEYENNE       PTSUNNY   47  26  44 NW16G38   30.15R
6HR MIN TEMP:  35; 6HR MAX TEMP:  47;

TORRINGTON     CLOUDY    45  31  58 NW8       30.13F
6HR MIN TEMP:  28; 6HR MAX TEMP:  45; 6HR PCP: TRACE;

PINE BLUFFS    CLOUDY    46  32  57 NW14      30.15F

$$


USA.gov is the U.S. government's official web portal to all federal, state and local government web resources and services.